AKDT,Max TemperatureF,Mean TemperatureF,Min TemperatureF,Max Dew PointF,MeanDew PointF,Min DewpointF,Max Humidity, Mean Humidity, Min Humidity, Max Sea Level PressureIn, Mean Sea Level PressureIn, Min Sea Level PressureIn, Max VisibilityMiles, Mean VisibilityMiles, Min VisibilityMiles, Max Wind SpeedMPH, Mean Wind SpeedMPH, Max Gust SpeedMPH,PrecipitationIn, CloudCover, Events, WindDirDegrees
2012-3-1,34,24,14,32,26,10,0,0,0,29.52,29.26,29.21,10,3,0,21,6,24,0.45,8,Fog-Snow,53
2012-3-2,31,28,24,28,21,12,0,0,0,29.59,29.36,29.24,10,9,4,22,7,28,0.02,8,Snow,289
2012-3-3,23,20,16,11,3,-6,0,0,0,29.86,29.79,29.61,10,10,7,29,16,38,0.00,5,,285
2012-3-4,29,19,8,9,5,-4,0,0,0,30.12,29.99,29.83,10,10,10,29,13,39,0.00,2,,290
2012-3-5,32,21,9,29,21,5,0,0,0,30.12,29.95,29.85,10,8,1,9,4,9,0.07,8,Snow,298
2012-3-6,41,36,31,30,20,15,0,0,0,29.94,29.92,29.87,10,10,9,16,7,17,0.00,6,,283
2012-3-7,35,26,16,19,16,12,0,0,0,29.94,29.90,29.83,10,10,10,13,4,18,0.00,2,,277
2012-3-8,30,27,23,18,16,13,0,0,0,29.82,29.45,29.14,10,10,7,17,10,23,T,5,Snow,287
2012-3-9,30,26,22,14,11,8,0,0,0,29.42,29.29,29.13,10,9,3,22,14,26,0.00,5,Snow,282
2012-3-10,21,19,16,14,8,1,0,0,0,29.42,29.37,29.28,10,7,1,30,16,45,0.01,4,Snow,291
2012-3-11,24,20,15,7,5,3,0,0,0,29.47,29.34,29.28,10,10,10,36,22,48,0.00,4,,297
2012-3-12,25,22,18,16,11,6,0,0,0,29.48,29.33,29.07,10,9,5,23,9,32,T,4,Snow,291
2012-3-13,28,25,21,19,16,14,0,0,0,29.05,28.97,28.95,10,8,4,20,10,26,0.02,8,Snow,301
2012-3-14,34,24,14,29,24,11,0,0,0,28.98,28.96,28.95,10,5,0,16,5,20,0.16,7,Fog-Snow,348
2012-3-15,28,23,17,27,19,8,0,0,0,29.15,29.02,28.95,10,5,1,25,16,37,0.09,7,Snow,297
2012-3-16,22,18,14,7,5,2,0,0,0,29.46,29.34,29.16,10,9,8,25,15,37,T,3,Snow,301
2012-3-17,29,22,14,16,12,2,0,0,0,29.65,29.55,29.48,10,10,10,22,14,29,T,3,,301
2012-3-18,27,25,23,20,18,15,0,0,0,29.66,29.62,29.57,10,8,3,15,9,20,T,7,Snow,302
2012-3-19,29,26,23,19,17,14,0,0,0,29.63,29.58,29.55,10,10,6,23,14,29,T,7,Snow,299
2012-3-20,23,20,16,15,11,6,0,0,0,29.63,29.55,29.50,10,9,4,29,16,39,T,4,Snow,301
2012-3-21,25,21,17,14,10,7,0,0,0,29.88,29.69,29.55,10,10,5,26,12,37,T,5,Snow,291
2012-3-22,29,22,14,14,11,8,0,0,0,30.10,30.04,29.91,10,10,10,12,5,16,0.00,2,,280
2012-3-23,34,26,18,32,27,11,0,0,0,30.09,29.80,29.61,10,5,0,23,10,30,0.32,8,Fog-Snow,132
2012-3-24,36,35,33,29,27,25,0,0,0,29.87,29.80,29.65,10,10,4,25,17,35,T,6,Snow,298
2012-3-25,36,31,25,24,23,21,0,0,0,29.83,29.77,29.65,10,10,10,20,9,26,0.00,4,,295
2012-3-26,36,29,21,33,28,18,0,0,0,29.63,29.46,29.39,10,7,1,23,11,26,0.08,7,Rain-Snow,96
2012-3-27,36,35,33,35,33,32,0,0,0,29.38,29.17,29.03,10,5,1,24,13,31,0.84,8,Rain-Snow,85
2012-3-28,38,36,33,36,34,32,0,0,0,29.03,28.93,28.85,10,4,1,20,11,24,0.53,8,Rain-Snow,52
2012-3-29,39,37,35,36,35,34,0,0,0,28.98,28.90,28.86,10,7,3,17,10,21,0.14,8,Rain,34
2012-3-30,45,41,36,34,33,32,0,0,0,29.37,29.14,28.99,10,10,5,18,10,24,0.02,7,Rain,311
2012-3-31,40,38,36,36,33,32,0,0,0,29.60,29.49,29.38,10,10,9,14,6,16,0.04,7,Rain,7